If you wish to contribute or participate in the discussions about articles you are invited to join SKYbrary as a registered user

Tromso/Langnes

From SKYbrary Wiki
ENTC
Airport
ICAO: ENTC
Summary
Name Tromso/Langnes
Region Europe
Territory Norway NO.gif
Location Tromso, Norway
Serving
Coordinates 69° 40' 54", 18° 55' 6"
Runways
Designator Length Width Surface
1/19 2392 m7,847.769 ft 45 m147.638 ft ASP
METAR
Observation ENTC 141220Z 20021KT 9999 FEW039 SCT074 M01/M07 Q1001 NOSIG RMK WIND 2600FT 18032KT
Station Tromso / Langnes
Date/Time 14 February 2016 12:20:00
Wind direction 200°
Wind speed 21 kts
Lowest cloud amount few clouds
Temperature
Dew point
Humidity 63%
QNH 1001 hPa
Weather condition n/a


Tromsø Airport

ICAO: ENTC IATA: TOS

Description

International airport serving city of Tromso in northern Norway.

Climatology

Borderline Subpolar Oceanic/Continental subarctic climate (because of winter temperatures) (Köppen climate classification Cfc/Dfc) - uniform precipitation distribution, temperatures are moderated by the proximity of the ocean and warm currents - cool summers and comparatively mild winters.

Tromso has a reputation for heavy snowfalls in winter.

Maps

Terrain

Loading map...

Airport Layout

Loading map...


Accidents & Serious Incidents at or in vicinity of ENTC

None on SKYbrary